[[{"header":{"parameterUnit":"m.s-1","parameterCategory":1,"la1":30.2991,"la2":30.254,"lo1":-89.0895,"lo2":-89.0444,"dy":0.0017,"dx":0.0017,"nx":28,"ny":28,"refTime":"2025-12-10T09:00:00:Z","depth":0,"parameterNumber":2,"parameterNumberName":"U-component_of_WINDS"},"data":[0,0,0,0,0,0,0,0,0,0,0,0,0,0,0,0,0,0,0,0,0,0,0,0,0,0,0,0,0,0,0,0,0,0,0,0,0,0,0,0,0,0,0,0,0,0,0,0,0,0,0,0,0,0,0,0,0,0,-0.6433,-0.6433,0,-0.6482,-0.6483,-0.6483,-0.6493,-0.6493,-0.6492,-0.6492,-0.6544,-0.6546,-0.6548,0,0,0,0,0,0,0,0,0,0,0,0,0,-0.6349,-0.635,-0.6433,-0.6433,-0.6434,-0.6482,-0.6483,-0.6483,-0.6493,-0.6493,-0.6492,-0.6492,-0.6544,-0.6546,-0.6548,0,0,0,0,0,0,0,0,0,0,0,0,0,-0.6391,-0.6351,-0.6432,-0.6444,-0.6446,-0.6482,-0.6483,-0.6484,-0.6493,-0.6493,-0.6492,-0.6492,-0.6543,-0.6546,-0.6548,-0.6576,0,0,-0.6556,-0.6558,0,0,0,0,0,0,0,0,-0.6388,-0.6394,-0.6442,-0.6444,-0.6445,-0.6481,-0.6472,-0.6515,-0.6493,-0.6475,-0.6492,-0.6491,-0.6524,-0.6528,-0.6539,-0.6579,-0.6581,-0.6557,-0.6558,-0.6559,-0.656,0,0,0,0,0,0,0,-0.6385,-0.6392,-0.6452,-0.6443,-0.6445,-0.6448,-0.6453,-0.648,-0.6502,-0.6477,-0.6478,-0.6483,-0.6525,-0.6536,-0.654,-0.6582,-0.6557,-0.6559,-0.6561,-0.6562,-0.6648,-0.6649,0,0,0,0,0,0,-0.638,-0.6389,-0.6451,-0.6454,-0.6415,-0.645,-0.6456,-0.647,-0.6502,-0.6506,-0.6484,-0.6484,-0.6532,-0.6537,-0.6542,-0.6577,-0.6559,-0.6562,-0.6563,-0.6647,-0.6648,-0.6649,0,0,0,0,0,0,-0.6378,-0.6385,-0.6449,-0.6422,-0.643,-0.6452,-0.6468,-0.6471,-0.6483,-0.6507,-0.6511,-0.6491,-0.6532,-0.6538,-0.6568,-0.6579,-0.6563,-0.6565,-0.6647,-0.6648,-0.6649,-0.6647,0,0,0,0,0,0,-0.6376,-0.6385,-0.6395,-0.6422,-0.6431,-0.6473,-0.6469,-0.6473,-0.6487,-0.6487,-0.6515,-0.6519,-0.6532,-0.6564,-0.657,-0.6582,-0.6567,-0.6646,-0.6647,-0.6648,-0.6647,-0.6648,-0.665,0,0,0,0,0,-0.6373,-0.6393,-0.6395,-0.6403,-0.6444,-0.6474,-0.6479,-0.6492,-0.6488,-0.6499,-0.6515,-0.6519,-0.6577,-0.6567,-0.6574,-0.6587,-0.6645,-0.6647,-0.6648,-0.6646,-0.6648,-0.665,0,0,0,0,0,0,-0.6367,-0.6396,-0.64,-0.6429,-0.6449,-0.6475,-0.6489,-0.6494,-0.6516,-0.6515,-0.6531,-0.6537,-0.6566,-0.658,-0.6568,-0.6616,-0.6611,-0.6614,-0.6606,-0.6609,-0.661,-0.6606,-0.657,0,0,0,0,0,-0.6369,-0.6389,-0.6414,-0.6438,-0.6448,-0.6467,-0.648,-0.6488,-0.651,-0.6518,-0.6536,-0.6557,-0.658,-0.6595,-0.6618,-0.6649,-0.6655,-0.6662,-0.6663,-0.6664,-0.6667,-0.6685,-0.6688,-0.6654,-0.6654,-0.6654,0,0,-0.6374,-0.6392,-0.6404,-0.6437,-0.6453,-0.6475,-0.6474,-0.6496,-0.6513,-0.6522,-0.6551,-0.6565,-0.659,-0.662,-0.6634,-0.6632,-0.6678,-0.6666,-0.6667,-0.6669,-0.6687,-0.669,-0.6693,-0.6656,-0.6655,-0.6655,0,0,-0.6393,-0.6409,-0.6431,-0.6447,-0.6471,-0.6484,-0.6489,-0.6515,-0.6525,-0.6554,-0.6562,-0.6582,-0.6621,-0.6639,-0.6653,-0.668,-0.6684,-0.6687,-0.6695,-0.6713,-0.6715,-0.6718,-0.6728,-0.6731,-0.6689,-0.6689,-0.6689,0,-0.6396,-0.6428,-0.6441,-0.6464,-0.6478,-0.6487,-0.651,-0.6525,-0.6556,-0.6566,-0.6563,-0.6613,-0.6631,-0.6666,-0.6672,-0.6683,-0.669,-0.6683,-0.6714,-0.6716,-0.6719,-0.6729,-0.6732,-0.6689,-0.6689,-0.6689,-0.6689,0,-0.6431,-0.6453,-0.6468,-0.6497,-0.6513,-0.6535,-0.6553,-0.6568,-0.6575,-0.6588,-0.6619,-0.664,-0.6667,-0.6676,-0.6683,-0.6712,-0.671,-0.671,-0.6705,-0.6722,-0.6731,-0.6735,-0.6689,-0.6689,-0.6689,-0.6689,0,0,-0.6448,-0.6484,-0.6489,-0.6503,-0.6531,-0.6549,-0.6572,-0.6598,-0.6611,-0.6633,-0.6653,-0.6686,-0.6687,-0.6703,-0.6712,-0.6728,-0.6748,-0.6726,-0.6727,-0.673,-0.6782,-0.6782,-0.6786,-0.6752,-0.6752,-0.6753,-0.678,0,-0.6471,-0.6512,-0.6525,-0.6559,-0.658,-0.6589,-0.661,-0.663,-0.6643,-0.6664,-0.6679,-0.6702,-0.6701,-0.671,-0.6726,-0.6742,-0.6759,-0.6741,-0.6771,-0.6772,-0.6765,-0.6791,-0.6791,-0.6815,-0.6784,-0.6785,-0.6785,0,-0.6503,-0.6524,-0.6561,-0.6587,-0.6596,-0.6614,-0.664,-0.6659,-0.6682,-0.6691,-0.6709,-0.6718,-0.6743,-0.6736,-0.6772,-0.6759,-0.6773,-0.6783,-0.6784,-0.6788,-0.678,-0.6795,-0.6824,-0.6827,-0.6791,-0.6791,-0.679,0,-0.6512,-0.655,-0.6577,-0.6589,-0.6619,-0.6632,-0.6646,-0.6668,-0.6683,-0.6706,-0.6716,-0.6741,-0.6755,-0.6775,-0.6791,-0.6784,-0.6826,-0.682,-0.6834,-0.6834,-0.6842,-0.6842,-0.6873,-0.6851,-0.6851,-0.6851,-0.685,0,-0.6537,-0.6559,-0.6582,-0.6598,-0.6624,-0.6639,-0.6664,-0.6678,-0.6698,-0.6718,-0.6728,-0.6747,-0.6766,-0.6788,-0.68,-0.6828,-0.6834,-0.6843,-0.6846,-0.6842,-0.6841,-0.6851,-0.685,-0.6852,-0.6851,-0.6851,-0.6851,0,-0.6551,-0.6567,-0.6597,-0.6624,-0.6631,-0.6649,-0.6672,-0.6689,-0.6703,-0.6728,-0.6735,-0.6757,-0.6783,-0.6801,-0.6834,-0.6843,-0.6873,-0.6876,-0.6865,-0.6867,-0.688,-0.6879,-0.6919,-0.6926,-0.6899,-0.6899,-0.6899,0,-0.6566,-0.6583,-0.6612,-0.6625,-0.6639,-0.6661,-0.6677,-0.6693,-0.6709,-0.6737,-0.675,-0.6777,-0.6799,-0.684,-0.686,-0.6886,-0.6889,-0.6902,-0.6893,-0.6889,-0.689,-0.6889,-0.6891,-0.6903,-0.6903,-0.6903,-0.6903,0,-0.659,-0.6597,-0.6619,-0.6644,-0.6662,-0.6682,-0.6703,-0.6714,-0.6733,-0.6751,-0.6777,-0.6794,-0.6829,-0.6855,-0.6883,-0.6898,-0.6904,-0.6906,-0.6911,-0.6907,-0.69,-0.6904,-0.6869,-0.6905,-0.6905,-0.6905,-0.6905,-0.6905,-0.6606,-0.6622,-0.6644,-0.6668,-0.6685,-0.6704,-0.6722,-0.6737,-0.676,-0.6788,-0.6796,-0.6824,-0.6848,-0.6886,-0.6901,-0.6924,-0.6922,-0.6929,-0.6931,-0.6932,-0.6932,-0.6897,-0.6929,-0.6929,-0.6929,-0.6929,-0.6929,0,-0.6631,-0.6646,-0.6668,-0.6696,-0.6715,-0.6719,-0.6742,-0.6758,-0.6782,-0.6803,-0.6825,-0.6856,-0.6882,-0.6903,-0.693,-0.6944,-0.6948,-0.6951,-0.695,-0.6953,-0.6932,-0.6925,-0.6947,-0.6947,-0.6947,-0.6947,-0.6947,-0.6947,-0.6646,-0.6674,-0.6684,-0.672,-0.6735,-0.6762,-0.6775,-0.6793,-0.681,-0.6843,-0.6865,-0.6878,-0.69,-0.6929,-0.6953,-0.6959,-0.6969,-0.6971,-0.6977,-0.6957,-0.6955,-0.6953,-0.6947,-0.6973,-0.6973,-0.6997,-0.6997,-0.6997]},{"header":{"parameterUnit":"m.s-1","parameterCategory":1,"la1":30.2991,"la2":30.254,"lo1":-89.0895,"lo2":-89.0444,"dy":0.0017,"dx":0.0017,"nx":28,"ny":28,"refTime":"2025-12-10T09:00:00:Z","depth":0,"parameterNumber":3,"parameterNumberName":"V-component_of_WINDS"},"data":[0,0,0,0,0,0,0,0,0,0,0,0,0,0,0,0,0,0,0,0,0,0,0,0,0,0,0,0,0,0,0,0,0,0,0,0,0,0,0,0,0,0,0,0,0,0,0,0,0,0,0,0,0,0,0,0,0,0,0.0936,0.0936,0,0.0911,0.0911,0.0911,0.0839,0.0837,0.0836,0.0834,0.0811,0.0812,0.0812,0,0,0,0,0,0,0,0,0,0,0,0,0,0.0923,0.0924,0.0936,0.0936,0.0935,0.0911,0.0911,0.091,0.0839,0.0837,0.0835,0.0834,0.0811,0.0812,0.0813,0,0,0,0,0,0,0,0,0,0,0,0,0,0.0917,0.0924,0.0936,0.0897,0.0893,0.0911,0.0911,0.091,0.084,0.0837,0.0835,0.0833,0.081,0.0811,0.0813,0.0868,0,0,0.0817,0.0817,0,0,0,0,0,0,0,0,0.0917,0.0917,0.0903,0.09,0.0895,0.0876,0.0898,0.0896,0.084,0.086,0.0834,0.0831,0.0834,0.0834,0.0834,0.0866,0.0865,0.0817,0.0817,0.0818,0.0818,0,0,0,0,0,0,0,0.0918,0.0918,0.0926,0.0903,0.0898,0.0881,0.0877,0.0897,0.0861,0.0858,0.0853,0.0851,0.0832,0.0833,0.0833,0.0865,0.0817,0.0818,0.0818,0.0819,0.0941,0.0943,0,0,0,0,0,0,0.0923,0.0919,0.0927,0.0925,0.0901,0.0883,0.0879,0.0884,0.086,0.0854,0.0853,0.0847,0.0832,0.0832,0.0832,0.0895,0.0818,0.0819,0.082,0.0939,0.0942,0.0944,0,0,0,0,0,0,0.0923,0.0925,0.0928,0.0921,0.092,0.0886,0.0892,0.0885,0.0886,0.0856,0.085,0.0861,0.083,0.083,0.0859,0.0893,0.082,0.0821,0.0936,0.094,0.0943,0.1021,0,0,0,0,0,0,0.0923,0.0925,0.0946,0.0922,0.092,0.0955,0.0894,0.0886,0.0888,0.0881,0.0862,0.0856,0.0828,0.0858,0.086,0.0893,0.0822,0.0933,0.0937,0.0942,0.1015,0.1027,0.1037,0,0,0,0,0,0.0923,0.0969,0.0947,0.0948,0.0945,0.0957,0.0957,0.0923,0.0891,0.0912,0.0892,0.0857,0.0889,0.0861,0.0864,0.0898,0.093,0.0936,0.0941,0.101,0.1025,0.1037,0,0,0,0,0,0,0.0999,0.0965,0.094,0.098,0.0972,0.0945,0.097,0.0939,0.0941,0.0934,0.0893,0.0889,0.0924,0.0913,0.0883,0.0949,0.0904,0.091,0.0955,0.0968,0.0979,0.0981,0.0823,0,0,0,0,0,0.102,0.1032,0.1002,0.104,0.1037,0.1004,0.1009,0.0983,0.0974,0.097,0.0953,0.0946,0.0954,0.096,0.0966,0.1013,0.1008,0.1037,0.1048,0.1057,0.1064,0.1088,0.1101,0.0963,0.0963,0.0963,0,0,0.1064,0.1047,0.1058,0.1055,0.1046,0.106,0.1002,0.102,0.103,0.0973,0.0999,0.0987,0.0976,0.1014,0.103,0.1006,0.1101,0.1065,0.1072,0.1073,0.1095,0.1108,0.112,0.0967,0.0966,0.0965,0,0,0.1151,0.114,0.117,0.1162,0.1148,0.1126,0.1133,0.1111,0.11,0.1126,0.1083,0.1095,0.111,0.1104,0.1103,0.1188,0.1156,0.1191,0.1248,0.1272,0.1283,0.1292,0.1323,0.1335,0.1197,0.1197,0.1197,0,0.1208,0.1228,0.1189,0.121,0.121,0.1158,0.1188,0.1182,0.1172,0.1174,0.1147,0.1164,0.1153,0.119,0.121,0.1211,0.1218,0.1193,0.1284,0.1293,0.1302,0.1331,0.1342,0.1202,0.1201,0.1201,0.12,0,0.1298,0.1312,0.1338,0.1329,0.1332,0.1357,0.1323,0.1331,0.1305,0.1286,0.1312,0.1297,0.1299,0.1305,0.1281,0.1338,0.1324,0.1292,0.1245,0.132,0.1347,0.1357,0.1208,0.1206,0.1205,0.1204,0,0,0.1434,0.1402,0.1413,0.1408,0.1389,0.1399,0.1422,0.1423,0.1431,0.1425,0.1444,0.1458,0.1427,0.1426,0.14,0.1421,0.149,0.1386,0.1385,0.1406,0.1553,0.1578,0.1592,0.1468,0.147,0.1471,0.1554,0,0.1517,0.1554,0.152,0.1564,0.1577,0.1527,0.1547,0.1538,0.1521,0.1529,0.151,0.152,0.1479,0.1478,0.1497,0.1478,0.1519,0.1471,0.1486,0.1487,0.1491,0.1606,0.1632,0.1711,0.1564,0.1566,0.1567,0,0.162,0.1618,0.1663,0.1641,0.1645,0.1664,0.1662,0.1671,0.166,0.1645,0.1644,0.1612,0.1633,0.1587,0.1616,0.1585,0.1588,0.158,0.1582,0.1583,0.1532,0.161,0.1736,0.1748,0.1583,0.1582,0.1581,0,0.1715,0.1724,0.1752,0.1749,0.1724,0.1739,0.1729,0.1715,0.1718,0.1716,0.1718,0.1719,0.1721,0.1723,0.1692,0.1661,0.1726,0.1677,0.1715,0.1716,0.1732,0.1732,0.1861,0.1733,0.1733,0.1733,0.1733,0,0.1812,0.1842,0.1795,0.1812,0.1844,0.1804,0.1837,0.1822,0.1811,0.1825,0.1782,0.1796,0.1754,0.1764,0.1741,0.1769,0.177,0.1759,0.1753,0.1764,0.1765,0.1766,0.1761,0.1736,0.1735,0.1735,0.1734,0,0.1925,0.1894,0.1921,0.1895,0.1889,0.1914,0.1891,0.1907,0.1886,0.1904,0.1906,0.1874,0.1884,0.1853,0.1858,0.1842,0.1884,0.1868,0.1887,0.1883,0.1924,0.1921,0.2059,0.2075,0.1937,0.1938,0.1939,0,0.1989,0.2011,0.1986,0.1992,0.1985,0.1995,0.1997,0.1959,0.1963,0.1952,0.1969,0.1975,0.1977,0.1995,0.1973,0.1976,0.1961,0.2009,0.1961,0.1972,0.1962,0.1962,0.1964,0.2019,0.2021,0.2022,0.2023,0,0.2107,0.2091,0.2095,0.2095,0.2099,0.2097,0.2092,0.2099,0.2058,0.2065,0.2074,0.2076,0.2081,0.2087,0.2086,0.2077,0.2044,0.2038,0.2048,0.206,0.207,0.2066,0.1915,0.2036,0.2034,0.2034,0.2033,0.2032,0.2198,0.2215,0.22,0.2207,0.2199,0.2195,0.2208,0.2188,0.2195,0.2195,0.2172,0.2186,0.2174,0.2169,0.2162,0.2173,0.2151,0.2164,0.2168,0.2172,0.2179,0.2068,0.2173,0.2172,0.2172,0.2172,0.2171,0,0.2314,0.2302,0.2308,0.2302,0.2308,0.2275,0.2267,0.2275,0.2287,0.2278,0.2281,0.2292,0.2298,0.2276,0.2279,0.2292,0.2277,0.2294,0.2293,0.2292,0.2198,0.219,0.2306,0.2306,0.2306,0.2306,0.2306,0.2306,0.2375,0.2402,0.2384,0.2407,0.2394,0.2406,0.2405,0.2402,0.2394,0.2408,0.2412,0.2397,0.2383,0.2385,0.239,0.2383,0.2386,0.2409,0.2398,0.2311,0.2298,0.2286,0.2278,0.241,0.241,0.249,0.2491,0.2491]}]]